Weather History for New York JFK, NY

Change the Weather History Date:

Sunday, December 1, 2013

  Actual Average Record
Temperature  
Mean Temperature 43 °F 42 °F  
Max Temperature 49 °F 49 °F 68 °F (2001)
Min Temperature 37 °F 36 °F 18 °F (1967)
Degree Days  
Heating Degree Days 22 23  
Month to date heating degree days 22 23  
Since 1 July heating degree days 836 847  
Cooling Degree Days 0 0  
Month to date cooling degree days 0 0  
Year to date cooling degree days 1111 1005  
Moisture  
Dew Point 32 °F    
Average Humidity 66    
Maximum Humidity 76    
Minimum Humidity 56    
Precipitation  
Precipitation T in 0.12 in 0.97 in (2010)
Month to date precipitation T 0.12  
Year to date precipitation 30.98 39.50  
Snow  
Snow 0.00 in 0.10 in - ()
Since 1 July snowfall 0.2 0.3  
Snow Depth 0.00 in    
Sea Level Pressure  
Sea Level Pressure 30.17 in    
Wind  
Wind Speed 7 mph (WNW)    
Max Wind Speed 10 mph    
Max Gust Speed 13 mph    
Visibility 10 miles    
Events      
T = Trace of Precipitation, MM = Missing Value Source: NWS Daily Summary

Daily Weather History Graph

Daily Weather History Graph

Search for Another Location

Airport:

Trip Planner

Search our weather history database for the weather conditions in past years. The results will help you decide how hot, cold, wet, or windy it might be!

Date:

Astronomy

Dec. 01, 2013 Rise Set
Actual Time 6:59 AM EST 4:28 PM EST
Civil Twilight 6:29 AM EST 4:58 PM EST
Nautical Twilight 5:55 AM EST 5:32 PM EST
Astronomical Twilight 5:22 AM EST 6:05 PM EST
Moon 5:14 AM EST (12/1) 3:36 PM EST (12/1)
Length of Visible Light 10h 29m
Length of Day
9h 28m
Waning Crescent, 2% of the Moon is Illuminated
Dec 1
Waning Crescent
Dec 2
New
Dec 9
First Quarter
Dec 17
Full
Dec 25
Last Quarter

Hourly Weather History & Observations

Time (EST) Temp. Windchill Dew Point Humidity Pressure Visibility Wind Dir Wind Speed Gust Speed Precip Events Conditions
12:51 AM 39.9 °F 35.1 °F 30.0 °F 68% 30.36 in 10.0 mi North 6.9 mph - N/A   Overcast
1:51 AM 39.9 °F 36.7 °F 30.9 °F 70% 30.33 in 10.0 mi NNE 4.6 mph - N/A   Mostly Cloudy
2:51 AM 39.9 °F 33.9 °F 30.9 °F 70% 30.32 in 10.0 mi NNW 9.2 mph - N/A   Mostly Cloudy
3:51 AM 39.0 °F 33.4 °F 30.9 °F 73% 30.28 in 10.0 mi North 8.1 mph - N/A   Mostly Cloudy
4:51 AM 39.9 °F 35.8 °F 30.9 °F 70% 30.26 in 10.0 mi North 5.8 mph - N/A   Mostly Cloudy
5:51 AM 37.9 °F 32.7 °F 30.9 °F 76% 30.25 in 10.0 mi NNW 6.9 mph - 0.00 in   Mostly Cloudy
6:51 AM 37.0 °F 31.6 °F 30.0 °F 76% 30.25 in 10.0 mi North 6.9 mph - N/A   Mostly Cloudy
6:58 AM 37.4 °F 33.8 °F 30.2 °F 75% 30.25 in 10.0 mi North 4.6 mph - N/A   Mostly Cloudy
7:51 AM 39.0 °F 33.4 °F 32.0 °F 76% 30.24 in 7.0 mi North 8.1 mph - N/A   Mostly Cloudy
8:51 AM 43.0 °F 38.8 °F 33.1 °F 68% 30.23 in 10.0 mi North 6.9 mph - N/A   Scattered Clouds
9:51 AM 46.0 °F 43.1 °F 34.0 °F 63% 30.22 in 10.0 mi North 5.8 mph - N/A   Mostly Cloudy
10:51 AM 46.9 °F - 34.0 °F 61% 30.19 in 10.0 mi Calm Calm - N/A   Mostly Cloudy
11:51 AM 48.0 °F - 34.0 °F 58% 30.16 in 10.0 mi WSW 6.9 mph - N/A   Mostly Cloudy
12:51 PM 48.0 °F - 33.1 °F 56% 30.13 in 10.0 mi WSW 6.9 mph - N/A   Mostly Cloudy
1:51 PM 48.0 °F - 33.1 °F 56% 30.10 in 10.0 mi SW 10.4 mph - N/A   Mostly Cloudy
2:51 PM 46.9 °F - 32.0 °F 56% 30.09 in 10.0 mi WSW 9.2 mph - N/A   Mostly Cloudy
3:51 PM 45.0 °F 41.2 °F 30.0 °F 56% 30.09 in 10.0 mi SW 6.9 mph - N/A   Mostly Cloudy
4:51 PM 44.1 °F 40.1 °F 30.9 °F 60% 30.08 in 10.0 mi SW 6.9 mph - N/A   Mostly Cloudy
5:51 PM 46.0 °F 42.5 °F 32.0 °F 58% 30.07 in 10.0 mi SW 6.9 mph - N/A   Overcast
6:51 PM 45.0 °F 41.2 °F 30.9 °F 58% 30.07 in 10.0 mi SW 6.9 mph - N/A   Overcast
7:51 PM 45.0 °F 41.2 °F 35.1 °F 68% 30.07 in 10.0 mi SW 6.9 mph - N/A   Overcast
8:51 PM 45.0 °F 40.6 °F 36.0 °F 71% 30.06 in 10.0 mi SW 8.1 mph - N/A   Overcast
9:51 PM 45.0 °F 41.2 °F 36.0 °F 71% 30.05 in 10.0 mi WSW 6.9 mph - N/A   Overcast
10:51 PM 44.1 °F 40.8 °F 36.0 °F 73% 30.04 in 10.0 mi West 5.8 mph - N/A   Overcast
11:51 PM 41.0 °F 38.0 °F 34.0 °F 76% 30.03 in 10.0 mi WSW 4.6 mph - N/A   Overcast